Regional Weather Roundup
Issued by NWS

Home | Current Version | Previous Version | Graphics & Text | Print | Product List | Glossary On
Versions: 1 2 3 4 5 6 7 8 9 10 11 12 13 14 15 16 17 18 19 20 21 22 23 24 25 26 27 28 29 30 31 32 33 34 35 36 37 38 39 40 41 42 43 44 45 46 47 48 49 50
000
ASUS43 KIND 280600
RWRIN

WEATHER ROUNDUP FOR INDIANA
NATIONAL WEATHER SERVICE INDIANAPOLIS IN
200 AM EDT WED JUN 28 2017

NOTE: "FAIR" INDICATES FEW OR NO CLOUDS BELOW 12,000 FEET WITH NO
SIGNIFICANT WEATHER AND/OR OBSTRUCTIONS TO VISIBILITY.

* - STATION DOES NOT REPORT WEATHER SUCH AS PRECIPITATION OR FOG.

+ - STATION NOT QUALITY CONTROLLED BY THE NATIONAL WEATHER SERVICE.
    USE DATA WITH CAUTION...ESPECIALLY DEWPOINT AND RELATIVE
    HUMIDITY OBSERVATIONS.

INZ001>003-010>013-019-020-280700-
NORTHWEST INDIANA

CITY           SKY/WX    TMP DP  RH WIND       PRES   REMARKS
MICHIGAN CITY+ CLEAR     59  46  63 S5        30.07S
MONTICELLO +   CLEAR     61  48  61 S6        30.09S
6HR MIN TEMP:  60; 6HR MAX TEMP:  72;

RENSSELAER +   CLEAR     59  46  63 S5        30.09S

$$

LMZ046-743>745-280700-
SOUTHERN LAKE MICHIGAN

STATION/POSITION TIME  TEMP    WIND        PRES    WAVE
                       AIR SEA DIR/SP/G            HT
                 (UTC) (F)     (DEG/KT/KT) (MB)    (FT)
BURNS HARBOR     0540   63     180/  8/ 11 1018.3S
MICHIGAN CITY    0530   64     150/  9/ 13   N/A
5NW MICH CITY    0550   64 66  180/ 12/ 14   N/A     1

$$

INZ004-005-014>016-021>024-280700-
NORTH CENTRAL INDIANA

CITY           SKY/WX    TMP DP  RH WIND       PRES   REMARKS
GOSHEN         CLEAR     52  47  83 CALM      30.09S
6HR MIN TEMP:  51; 6HR MAX TEMP:  70; 6HR PCP: TRACE;

PERU/GRISSOM   CLEAR     56  50  80 S7        30.09S
6HR MIN TEMP:  55; 6HR MAX TEMP:  70;

SOUTH BEND     CLEAR     55  45  68 S3        30.09S
6HR MIN TEMP:  55; 6HR MAX TEMP:  71;


$$

INZ006>009-017-018-025>027-280700-
NORTHEAST INDIANA

CITY           SKY/WX    TMP DP  RH WIND       PRES   REMARKS
ANGOLA *+      CLEAR     52  43  71 CALM      30.10R
FORT WAYNE     PTCLDY    57  51  80 CALM      30.11S
6HR MIN TEMP:  56; 6HR MAX TEMP:  70;

KENDALLVILLE + CLEAR     53  51  92 CALM      30.10S

$$

INZ028-029-035-036-043>045-051>053-280700-
WEST CENTRAL INDIANA

CITY           SKY/WX    TMP DP  RH WIND       PRES   REMARKS
CRAWFORDSVL +  CLEAR     52  52 100 CALM      30.11S
6HR MIN TEMP:  52; 6HR MAX TEMP:  70;

GREENCASTLE +  CLEAR     54  50  87 CALM      30.12S
LAFAYETTE      CLEAR     54  50  86 CALM      30.09S
6HR MIN TEMP:  53; 6HR MAX TEMP:  71;

TERRE HAUTE    PTCLDY    57  50  77 SE5       30.10S
6HR MIN TEMP:  55; 6HR MAX TEMP:  73;


$$

INZ030>032-037>040-046>048-054>057-064-065-280700-
CENTRAL INDIANA

CITY           SKY/WX    TMP DP  RH WIND       PRES   REMARKS
INDIANAPOLIS   PTCLDY    60  49  66 CALM      30.11S
6HR MIN TEMP:  60; 6HR MAX TEMP:  73;

-EAGLE CREEK   CLEAR     57  52  83 CALM      30.11S
6HR MIN TEMP:  57; 6HR MAX TEMP:  73;

KOKOMO +       CLEAR     58  50  75 S7        30.12S
6HR MIN TEMP:  57; 6HR MAX TEMP:  72;

MT COMFORT *+  CLEAR     57  50  77 SE6       30.12F
SHELBYVILLE    CLEAR     54  50  86 CALM      30.12S
6HR MIN TEMP:  54; 6HR MAX TEMP:  73;


$$

INZ033-034-041-042-049-050-058-059-280700-
EAST CENTRAL INDIANA

CITY           SKY/WX    TMP DP  RH WIND       PRES   REMARKS
MUNCIE         CLEAR     60  48  64 S5        30.12S
6HR MIN TEMP:  60; 6HR MAX TEMP:  72;

RICHMOND +     PTCLDY    52  48  87 CALM      30.14F

$$

INZ060-061-067>069-081>083-085>088-280700-
SOUTHWEST INDIANA

CITY           SKY/WX    TMP DP  RH WIND       PRES   REMARKS
EVANSVILLE     PTCLDY    60  55  83 CALM      30.10F
6HR MIN TEMP:  60; 6HR MAX TEMP:  78;

HUNTINGBURG *+ CLEAR     59  53  80 SE8       30.11S
6HR MIN TEMP:  58; 6HR MAX TEMP:  74;


$$

INZ062-063-066-070>080-084-089>092-280700-
SOUTH CENTRAL AND SOUTHEAST INDIANA

CITY           SKY/WX    TMP DP  RH WIND       PRES   REMARKS
BLOOMINGTON    CLEAR     53  48  83 CALM      30.12S
6HR MIN TEMP:  53; 6HR MAX TEMP:  73;

MADISON *+     CLEAR     55  54  94 CALM      30.16S
SEYMOUR +      CLEAR     57  55  94 CALM      30.13R

$$





USA.gov is the U.S. government's official web portal to all federal, state and local government web resources and services.